DW8219 Weather Reports


Display with metric or nautical units.
time (UTC)temp
F
wind
direction
speed
MPH
gust
MPH
rain 1hr
in
rain 24hr
in
rain mn
in
humidity
%
barometer
mb
20260502130404 51 301 1.0 8.0 0.00 0.01 0.01 77 1010.9
20260502123404 52 326 3.0 7.0 0.00 0.01 0.01 78 1010.7
20260502122904 51 236 5.0 9.0 0.00 0.01 0.01 77 1010.6
20260502122404 51 279 1.0 8.0 0.00 0.01 0.01 79 1010.7
20260502121905 51 298 1.0 6.0 0.00 0.01 0.01 79 1010.6
20260502121404 51 245 0.0 6.0 0.00 0.01 0.01 80 1010.5
20260502115404 50 36 0.0 0.0 0.00 0.01 0.01 84 1010.4
20260502114904 50 36 0.0 0.0 0.00 0.01 0.01 84 1010.3
20260502114404 50 36 0.0 0.0 0.00 0.01 0.01 86 1010.4
20260502113904 50 36 0.0 0.0 0.00 0.01 0.01 86 1010.4
20260502112404 50 36 0.0 0.0 0.00 0.01 0.01 87 1010.5
20260502111904 49 36 0.0 0.0 0.00 0.01 0.01 88 1010.5
20260502111405 49 36 0.0 0.0 0.00 0.01 0.01 88 1010.3
20260502110904 49 36 0.0 0.0 0.00 0.01 0.01 89 1010.2
20260502110404 48 36 0.0 0.0 0.00 0.01 0.01 89 1010.4
20260502105405 48 36 0.0 0.0 0.00 0.01 0.01 88 1010.1
20260502104904 48 36 0.0 0.0 0.00 0.01 0.01 88 1010.0
20260502104405 48 36 0.0 0.0 0.00 0.01 0.01 87 1009.9
20260502103906 48 36 0.0 0.0 0.01 0.01 0.01 87 1009.8
20260502103406 48 36 0.0 0.0 0.01 0.01 0.01 86 1009.7
20260502102904 48 36 0.0 0.0 0.01 0.01 0.01 86 1009.9
20260502102406 48 36 0.0 0.0 0.01 0.01 0.01 85 1009.9
20260502101904 48 36 0.0 0.0 0.01 0.01 0.01 84 1009.8
20260502101405 49 36 0.0 0.0 0.01 0.01 0.01 84 1009.8
20260502100904 49 36 0.0 0.0 0.01 0.01 0.01 84 1009.6
20260502100405 49 36 0.0 0.0 0.01 0.01 0.01 84 1009.6
20260502091404 50 0 0.0 0.0 0.00 0.00 0.00 80 1010.2
20260502090904 50 0 0.0 0.0 0.00 0.00 0.00 80 1010.2
20260502090405 50 5 0.0 0.0 0.00 0.00 0.00 80 1009.9
20260502071404 52 254 0.0 0.0 0.00 0.00 0.00 71 1009.3
20260502070904 52 254 0.0 0.0 0.00 0.00 0.00 70 1009.4
20260502070404 52 254 0.0 3.0 0.00 0.00 0.00 68 1009.6
20260502065904 53 252 0.0 1.0 0.00 0.00 0.00 67 1009.6
20260502065404 53 227 0.0 3.0 0.00 0.00 0.00 64 1009.7
20260502064905 53 167 1.0 7.0 0.00 0.00 0.00 63 1009.8
20260502064405 54 192 1.0 5.0 0.00 0.00 0.00 62 1009.8
20260502063405 54 221 1.0 6.0 0.00 0.00 0.00 62 1009.8
20260502062904 54 197 1.0 5.0 0.00 0.00 0.00 61 1009.7
20260502062404 54 217 0.0 3.0 0.00 0.00 0.00 61 1009.7
20260502061904 54 213 0.0 5.0 0.00 0.00 0.00 62 1009.8
20260502060904 54 211 1.0 3.0 0.00 0.00 0.00 62 1010.0
20260502055904 54 230 0.0 3.0 0.00 0.00 0.00 61 1010.0
20260502055406 54 230 3.0 5.0 0.00 0.00 0.00 61 1009.9
20260502054904 54 237 1.0 7.0 0.00 0.00 0.00 61 1009.9
20260502054404 54 207 1.0 6.0 0.00 0.00 0.00 61 1009.9
20260502053904 54 209 1.0 5.0 0.00 0.00 0.00 62 1009.9
20260502052905 54 207 2.0 5.0 0.00 0.00 0.00 62 1010.1
20260502052405 54 209 3.0 9.0 0.00 0.00 0.00 62 1010.2
20260502051904 54 213 2.0 7.0 0.00 0.00 0.00 63 1010.2
20260502051404 54 220 1.0 8.0 0.00 0.00 0.00 64 1010.1
20260502050904 54 209 1.0 5.0 0.00 0.00 0.00 65 1010.1
20260502050404 54 237 3.0 9.0 0.00 0.00 0.00 65 1010.0
20260502045904 54 216 1.0 5.0 0.00 0.00 0.00 65 1010.0
20260502045405 54 221 1.0 5.0 0.00 0.00 0.00 66 1010.0
20260502044906 54 220 0.0 1.0 0.00 0.00 0.00 69 1009.8
20260502044405 54 250 0.0 7.0 0.00 0.00 0.00 69 1009.9
20260502043904 54 200 0.0 5.0 0.00 0.00 0.00 70 1009.9
20260502042905 54 187 0.0 3.0 0.00 0.00 0.00 71 1010.0
20260502042404 54 182 0.0 3.0 0.00 0.00 0.00 72 1010.0
20260502041905 54 169 0.0 0.0 0.00 0.00 0.00 72 1010.2
20260502041404 54 170 0.0 2.0 0.00 0.00 0.00 71 1010.2
20260502040905 54 170 0.0 2.0 0.00 0.00 0.00 72 1010.2
20260502040405 54 171 0.0 0.0 0.00 0.00 0.00 74 1010.0
20260502034905 53 139 0.0 0.0 0.00 0.00 0.00 77 1010.1
20260502034404 53 139 0.0 0.0 0.00 0.00 0.00 77 1010.1
20260502033905 53 140 0.0 0.0 0.00 0.00 0.00 77 1010.1
20260502033404 53 300 0.0 0.0 0.00 0.00 0.00 77 1010.0
20260502032904 53 299 0.0 0.0 0.00 0.00 0.00 77 1010.0
20260502032405 53 300 0.0 0.0 0.00 0.00 0.00 76 1010.0
20260502031904 53 300 0.0 0.0 0.00 0.00 0.00 76 1010.0
20260502031405 53 300 0.0 0.0 0.00 0.00 0.00 76 1010.0
20260502030904 53 300 0.0 0.0 0.00 0.00 0.00 75 1010.1
20260502025905 53 304 0.0 1.0 0.00 0.00 0.00 74 1010.2
20260502025405 53 187 0.0 0.0 0.00 0.00 0.00 74 1010.3
20260502024905 53 189 0.0 6.0 0.00 0.00 0.00 74 1010.3
20260502024405 53 177 2.0 7.0 0.00 0.00 0.00 74 1010.2
20260502023905 53 177 1.0 5.0 0.00 0.00 0.00 73 1010.0
20260502023404 53 178 2.0 7.0 0.00 0.00 0.00 73 1010.1
20260502022904 53 190 1.0 8.0 0.00 0.00 0.00 73 1010.2
20260502022404 53 172 1.0 6.0 0.00 0.00 0.00 73 1010.2
20260502021904 53 176 2.0 7.0 0.00 0.00 0.00 73 1010.2
20260502021404 53 170 3.0 8.0 0.00 0.00 0.00 72 1010.1
20260502020404 53 147 2.0 6.0 0.00 0.00 0.00 72 1010.1
20260502015903 53 172 1.0 6.0 0.00 0.00 0.00 71 1010.0
20260502015404 53 180 0.0 3.0 0.00 0.00 0.00 71 1010.0
20260502014904 53 183 1.0 5.0 0.00 0.00 0.00 71 1010.1
20260502014404 54 180 0.0 5.0 0.00 0.00 0.00 70 1010.0
20260502013904 54 188 0.0 6.0 0.00 0.00 0.00 69 1009.9
20260502013404 54 182 1.0 6.0 0.00 0.00 0.00 69 1009.9
20260502012904 54 166 0.0 7.0 0.00 0.00 0.00 68 1009.8
20260502012404 54 173 2.0 8.0 0.00 0.00 0.00 68 1009.8
20260502011404 55 161 2.0 8.0 0.00 0.00 0.00 67 1009.7
20260502010904 55 173 2.0 8.0 0.00 0.00 0.00 67 1009.6
20260502010405 55 176 2.0 8.0 0.00 0.00 0.00 66 1009.6
20260502005905 55 175 1.0 7.0 0.00 0.00 0.00 66 1009.6
20260502005404 55 180 1.0 6.0 0.00 0.00 0.00 65 1009.6
20260502004905 56 172 2.0 7.0 0.00 0.00 0.00 65 1009.6
20260502004406 56 187 0.0 7.0 0.00 0.00 0.00 64 1009.6
20260502003904 56 168 1.0 3.0 0.00 0.00 0.00 64 1009.6
20260502003405 56 190 1.0 3.0 0.00 0.00 0.00 63 1009.6
20260502002904 56 184 1.0 5.0 0.00 0.00 0.00 62 1009.5
20260502002404 56 171 1.0 6.0 0.00 0.00 0.00 62 1009.5
20260502001905 56 176 1.0 7.0 0.00 0.00 0.00 61 1009.4
20260502001405 56 161 1.0 6.0 0.00 0.00 0.00 60 1009.4
20260502000904 57 162 3.0 7.0 0.00 0.00 0.00 59 1009.3
20260502000405 57 160 1.0 6.0 0.00 0.00 0.00 59 1009.2
20260501235904 57 188 3.0 10.0 0.00 0.00 0.00 59 1009.2
20260501235404 57 180 5.0 10.0 0.00 0.00 0.00 58 1009.2
20260501234904 57 155 4.0 10.0 0.00 0.00 0.00 57 1009.1
20260501234404 57 159 2.0 9.0 0.00 0.00 0.00 58 1009.1
20260501233904 57 160 3.0 10.0 0.00 0.00 0.00 58 1009.0
20260501233405 57 164 3.0 9.0 0.00 0.00 0.00 58 1009.0
20260501232904 57 168 5.0 12.0 0.00 0.00 0.00 57 1009.0
20260501232405 57 170 5.0 12.0 0.00 0.00 0.00 57 1008.9
20260501231905 57 154 1.0 6.0 0.00 0.00 0.00 56 1008.8
20260501230905 58 155 1.0 8.0 0.00 0.00 0.00 55 1008.8
20260501230404 58 169 3.0 12.0 0.00 0.00 0.00 55 1008.8
20260501225905 58 149 3.0 12.0 0.00 0.00 0.00 55 1008.7
20260501225405 58 160 6.0 12.0 0.00 0.00 0.00 54 1008.6
20260501224904 58 145 3.0 9.0 0.00 0.00 0.00 55 1008.6
20260501223906 58 170 7.0 13.0 0.00 0.00 0.00 53 1008.6
20260501223405 58 172 5.0 13.0 0.00 0.00 0.00 53 1008.7
20260501222404 58 164 6.0 10.0 0.00 0.00 0.00 53 1008.7
20260501221905 58 172 4.0 14.0 0.00 0.00 0.00 53 1008.7
20260501221406 58 178 10.0 16.0 0.00 0.00 0.00 52 1008.7
20260501220905 58 168 6.0 12.0 0.00 0.00 0.00 53 1008.7
20260501220405 58 159 7.0 16.0 0.00 0.00 0.00 52 1008.8
20260501215904 59 160 5.0 21.0 0.00 0.00 0.00 51 1008.8
20260501214905 58 161 9.0 17.0 0.00 0.00 0.00 53 1008.9
20260501214405 58 185 6.0 20.0 0.00 0.00 0.00 52 1008.8
20260501213405 59 182 9.0 16.0 0.00 0.00 0.00 51 1008.6
20260501212904 59 146 9.0 17.0 0.00 0.00 0.00 51 1008.6
20260501212405 60 167 9.0 16.0 0.00 0.00 0.00 50 1008.6
20260501211905 60 181 6.0 16.0 0.00 0.00 0.00 50 1008.7
20260501211405 60 157 7.0 15.0 0.00 0.00 0.00 48 1008.4
20260501210905 60 181 8.0 15.0 0.00 0.00 0.00 48 1008.3
20260501210404 61 183 6.0 17.0 0.00 0.00 0.00 47 1008.3
20260501205905 61 156 8.0 15.0 0.00 0.00 0.00 47 1008.3
20260501205405 63 164 9.0 16.0 0.00 0.00 0.00 44 1008.3
20260501204905 65 176 5.0 12.0 0.00 0.00 0.00 39 1008.4
20260501203905 65 242 6.0 14.0 0.00 0.00 0.00 39 1008.4
20260501203404 65 211 4.0 12.0 0.00 0.00 0.00 41 1008.4
20260501202904 64 220 5.0 9.0 0.00 0.00 0.00 43 1008.4
20260501201904 63 262 2.0 12.0 0.00 0.00 0.00 39 1008.5
20260501201403 65 207 7.0 13.0 0.00 0.00 0.00 40 1008.4
20260501200404 65 213 5.0 9.0 0.00 0.00 0.00 40 1008.6
20260501195903 64 145 1.0 6.0 0.00 0.00 0.00 39 1008.6
20260501194904 62 226 6.0 10.0 0.00 0.00 0.00 38 1008.7
20260501194404 62 309 3.0 10.0 0.00 0.00 0.00 39 1008.6
20260501193904 63 179 1.0 9.0 0.00 0.00 0.00 38 1008.6
20260501193405 63 177 2.0 7.0 0.00 0.00 0.00 38 1008.7
20260501192904 64 193 6.0 12.0 0.00 0.00 0.00 37 1008.7
20260501191403 64 252 6.0 12.0 0.00 0.00 0.00 38 1008.9
20260501190404 64 203 3.0 9.0 0.00 0.00 0.00 40 1009.0
20260501185904 63 148 0.0 1.0 0.00 0.00 0.00 39 1009.0
20260501184404 64 268 7.0 15.0 0.00 0.00 0.00 39 1009.3
20260501183904 63 232 5.0 8.0 0.00 0.00 0.00 41 1009.4
20260501183404 63 204 2.0 10.0 0.00 0.00 0.00 40 1009.5
20260501182904 64 234 5.0 10.0 0.00 0.00 0.00 42 1009.6
20260501182404 63 239 3.0 12.0 0.00 0.00 0.00 45 1009.7
20260501181905 63 262 6.0 13.0 0.00 0.00 0.00 42 1009.8
20260501181404 63 229 5.0 12.0 0.00 0.00 0.00 39 1009.8
20260501180904 63 265 5.0 12.0 0.00 0.00 0.00 39 1009.8
20260501180404 64 259 6.0 12.0 0.00 0.00 0.00 42 1009.8
20260501175905 63 275 3.0 12.0 0.00 0.00 0.00 39 1009.7
20260501175404 62 253 2.0 9.0 0.00 0.00 0.00 39 1009.7
20260501174904 63 269 6.0 13.0 0.00 0.00 0.00 39 1009.8
20260501173904 62 234 1.0 3.0 0.00 0.00 0.00 39 1009.7
20260501173404 62 25 2.0 6.0 0.00 0.00 0.00 41 1009.8
20260501172404 61 243 1.0 12.0 0.00 0.00 0.00 41 1010.0
20260501171904 61 237 6.0 14.0 0.00 0.00 0.00 42 1010.1
20260501171406 61 257 2.0 9.0 0.00 0.00 0.00 41 1010.1
20260501170905 60 177 0.0 7.0 0.00 0.00 0.00 38 1010.3
20260501170405 61 255 4.0 13.0 0.00 0.00 0.00 40 1010.3
20260501165404 61 305 3.0 8.0 0.00 0.00 0.00 37 1010.3
20260501164904 61 254 7.0 13.0 0.00 0.00 0.00 42 1010.5
20260501164405 60 265 6.0 12.0 0.00 0.00 0.00 37 1010.5
20260501163405 60 319 1.0 6.0 0.00 0.00 0.00 42 1010.5
20260501162905 61 229 5.0 10.0 0.00 0.00 0.00 42 1010.6
20260501162404 60 245 1.0 8.0 0.00 0.00 0.00 42 1010.6
20260501161905 59 293 0.0 7.0 0.00 0.00 0.00 41 1010.7
20260501161405 59 304 0.0 2.0 0.00 0.00 0.00 37 1010.6
20260501160905 59 294 1.0 9.0 0.00 0.00 0.00 43 1010.8
20260501160404 60 318 1.0 7.0 0.00 0.00 0.00 45 1010.8
20260501155906 59 295 1.0 9.0 0.00 0.00 0.00 41 1010.9
20260501155404 59 276 3.0 9.0 0.00 0.00 0.00 42 1011.0
20260501154905 59 330 1.0 8.0 0.00 0.00 0.00 45 1011.1
20260501154404 59 252 3.0 8.0 0.00 0.00 0.00 42 1011.2
20260501153904 58 323 2.0 8.0 0.00 0.00 0.00 52 1011.2
20260501153405 57 281 2.0 9.0 0.00 0.00 0.00 44 1011.4
20260501152905 58 283 4.0 9.0 0.00 0.00 0.00 44 1011.4
20260501151404 57 310 3.0 10.0 0.00 0.00 0.00 46 1011.6
20260501150906 57 303 2.0 8.0 0.00 0.00 0.00 47 1011.5
20260501150404 57 282 1.0 8.0 0.00 0.00 0.00 47 1011.4
20260501145905 57 308 1.0 9.0 0.00 0.00 0.00 48 1011.4
20260501145404 56 14 2.0 9.0 0.00 0.00 0.00 47 1011.4